Regional Weather Roundup
Issued by NWS

Home | Current Version | Previous Version | Text Only | Print | Product List | Glossary On
Versions: 1 2 3 4 5 6 7 8 9 10 11 12 13 14 15 16 17 18 19 20 21 22 23 24 25 26 27 28 29 30 31 32 33 34 35 36 37 38 39 40 41 42 43 44 45 46 47 48 49 50
000
ASUS43 KLSX 210807
RWRMO

WEATHER SUMMARY FOR MISSOURI
NATIONAL WEATHER SERVICE SPRINGFIELD MO
300 AM CDT MON AUG 21 2017

NOTE: "FAIR" INDICATES FEW OR NO CLOUDS BELOW 12,000 FEET WITH NO
       SIGNIFICANT WEATHER AND/OR OBSTRUCTIONS TO VISIBILITY.
       CURRENT SKY AND/OR WEATHER CONDITIONS ARE NOT AVAILABLE FOR
       CHILLICOTHE AND FARMINGTON.

MOZ001>031-035>038-043-044-053-054-210900-
...NORTHERN AND WESTERN MISSOURI...

CITY           SKY/WX    TMP DP  RH WIND       PRES   REMARKS
KANSAS CTY INT CLEAR     74  69  85 S10       29.99S
KANSAS C DTWN  CLEAR     79  70  74 S7        29.98S
LEE`S SUMMIT   CLEAR     77  68  73 SW13      30.01R
ST JOSEPH      CLEAR     76  71  85 S9        29.96S
CHILLICOTHE      N/A     71  68  90 CALM      30.01S
KIRKSVILLE     CLEAR     69  67  93 SE3       30.03F

$$
MOZ066>068-077>081-088>096-101>105-210900-
...SOUTHWEST MISSOURI...

CITY           SKY/WX    TMP DP  RH WIND       PRES   REMARKS
SPRINGFIELD    CLEAR     71  70  96 S12       30.06F
JOPLIN         CLOUDY    77  72  84 SE5       30.05F
BRANSON        CLEAR     75  73  94 S6        30.10F

$$
MOZ032>034-039>042-045>050-055>058-069>072-210900-
...CENTRAL MISSOURI...

CITY           SKY/WX    TMP DP  RH WIND       PRES   REMARKS
COLUMBIA       PTCLDY    72  71  97 CALM      30.05R
JEFFERSON CITY PTCLDY    73  73 100 CALM      30.03S
ROLLA          CLEAR     74  72  93 S8        30.08F
SEDALIA        PTCLDY    73  65  75 S7        30.04S
WHITEMAN AFB   PTCLDY    71  70  98 S6        30.01R
WARRENSBURG    CLEAR     70  64  83 SE5       30.01R
OSAGE BEACH    PTCLDY    72  68  87 S7        30.06S

$$
MOZ051-052-059>065-210900-
...EAST CENTRAL MISSOURI...

CITY           SKY/WX    TMP DP  RH WIND       PRES   REMARKS
ST LOUIS INTL  CLOUDY    79  74  84 S6        30.06F
SPIRIT OF STL  PTCLDY    73  73 100 CALM      30.04F
ST CHARLES     PTCLDY    71  70  96 NE3       30.04S

$$
MOZ072>076-082>087-097>100-106>115-210900-
...SOUTH CENTRAL AND SOUTHEAST MISSOURI...

CITY           SKY/WX    TMP DP  RH WIND       PRES   REMARKS
CAPE GIRARDEAU PTCLDY    70  68  93 CALM      30.08F
FARMINGTON     MOCLDY    73  72  96 S3        30.10F
POPLAR BLUFF   PTCLDY    72  71  97 CALM      30.07F
WEST PLAINS    CLEAR     75  71  87 SW6       30.11F

$$


USA.gov is the U.S. government's official web portal to all federal, state and local government web resources and services.